Weather History for Toledo, OH

Change the Weather History Date:

Friday, May 4, 2012

  Actual Average Record
Temperature  
Mean Temperature 69 °F 56 °F  
Max Temperature 78 °F 67 °F 89 °F (1895)
Min Temperature 59 °F 45 °F 25 °F (2005)
Degree Days  
Heating Degree Days 0 10  
Month to date heating degree days 5 40  
Since 1 July heating degree days 4932 5942  
Cooling Degree Days 4 1  
Month to date cooling degree days 17 1  
Year to date cooling degree days 40 9  
Growing Degree Days 18 (Base 50)    
Moisture  
Dew Point 61 °F    
Average Humidity 77    
Maximum Humidity 93    
Minimum Humidity 60    
Precipitation  
Precipitation 0.19 in 0.11 in 1.27 in (1965)
Month to date precipitation 0.36 0.44  
Year to date precipitation 10.14 10.23  
Snow  
Snow 0.00 in 0.00 in - ()
Month to date snowfall 0.0 0.0  
Since 1 July snowfall 20.8 37.5  
Snow Depth 0.00 in    
Sea Level Pressure  
Sea Level Pressure 29.94 in    
Wind  
Wind Speed 6 mph (ENE)    
Max Wind Speed 24 mph    
Max Gust Speed 31 mph    
Visibility 9 miles    
Events Rain , Thunderstorm    
T = Trace of Precipitation, MM = Missing Value Source: NWS Daily Summary

Daily Weather History Graph

Daily Weather History Graph

Search for Another Location

Airport:

Trip Planner

Search our weather history database for the weather conditions in past years. The results will help you decide how hot, cold, wet, or windy it might be!

Date:

Astronomy

May. 04, 2012 Rise Set
Actual Time 6:27 AM EDT 8:36 PM EDT
Civil Twilight 5:57 AM EDT 9:07 PM EDT
Nautical Twilight 5:19 AM EDT 9:45 PM EDT
Astronomical Twilight 4:38 AM EDT 10:26 PM EDT
Moon 7:13 PM EDT (5/4) 5:09 AM EDT (5/4)
Length of Visible Light 15h 10m
Length of Day
14h 09m
Waxing Gibbous, 97% of the Moon is Illuminated
May 4
Waxing Gibbous
May 5
Full
May 12
Last Quarter
May 20
New
May 28
First Quarter

Hourly Weather History & Observations

Time (EDT) Temp. Dew Point Humidity Pressure Visibility Wind Dir Wind Speed Gust Speed Precip Events Conditions
12:52 AM 75.9 °F 61.0 °F 60% 29.94 in 10.0 mi SW 16.1 mph - N/A   Mostly Cloudy
1:52 AM 72.0 °F 57.9 °F 61% 29.93 in 10.0 mi SW 5.8 mph - N/A   Clear
2:52 AM 66.0 °F 57.0 °F 73% 29.93 in 10.0 mi Calm Calm - N/A   Clear
3:52 AM 64.0 °F 57.9 °F 80% 29.93 in 10.0 mi NE 4.6 mph - N/A   Clear
4:52 AM 61.0 °F 57.0 °F 87% 29.96 in 10.0 mi Calm Calm - N/A   Clear
5:52 AM 59.0 °F 57.0 °F 93% 29.95 in 10.0 mi Calm Calm - N/A   Clear
6:52 AM 60.1 °F 57.9 °F 93% 29.94 in 10.0 mi Calm Calm - N/A   Clear
7:52 AM 64.0 °F 60.1 °F 87% 29.94 in 10.0 mi South 6.9 mph - N/A   Clear
8:52 AM 68.0 °F 60.1 °F 76% 29.92 in 10.0 mi South 8.1 mph - N/A   Clear
9:52 AM 70.0 °F 61.0 °F 73% 29.94 in 10.0 mi SW 9.2 mph - N/A   Clear
10:52 AM 73.0 °F 62.1 °F 68% 29.95 in 10.0 mi West 6.9 mph - N/A   Clear
11:52 AM 75.0 °F 63.0 °F 66% 29.95 in 10.0 mi WSW 10.4 mph - N/A   Mostly Cloudy
12:52 PM 75.9 °F 63.0 °F 64% 29.94 in 10.0 mi WSW 3.5 mph - N/A   Overcast
1:52 PM 75.9 °F 63.0 °F 64% 29.92 in 10.0 mi NNE 8.1 mph - N/A   Overcast
2:10 PM 75.2 °F 64.4 °F 69% 29.94 in 10.0 mi North 10.4 mph - 0.00 in Rain , Thunderstorm Light Rain
2:18 PM 71.6 °F 64.4 °F 78% 29.94 in 1.8 mi NNE 16.1 mph 19.6 mph 0.01 in Rain , Thunderstorm Rain
2:21 PM 69.8 °F 64.4 °F 83% 29.94 in 1.2 mi NNE 11.5 mph - 0.07 in Rain Heavy Rain
2:27 PM 71.6 °F 64.4 °F 78% 29.93 in 2.0 mi North 8.1 mph - 0.09 in Rain Rain
2:31 PM 71.6 °F 64.4 °F 78% 29.93 in 4.0 mi North 8.1 mph - 0.10 in Rain , Thunderstorm Rain
2:52 PM 71.1 °F 64.0 °F 78% 29.92 in 10.0 mi NNE 5.8 mph - 0.11 in Rain , Thunderstorm Light Thunderstorms and Rain
3:18 PM 71.6 °F 66.2 °F 83% 29.93 in 10.0 mi East 4.6 mph - 0.00 in   Overcast
3:52 PM 69.1 °F 64.9 °F 87% 29.92 in 2.5 mi East 5.8 mph - 0.06 in Rain Heavy Rain
4:04 PM 69.8 °F 64.4 °F 83% 29.92 in 6.0 mi East 4.6 mph - 0.02 in Rain Light Rain
4:52 PM 71.1 °F 66.0 °F 84% 29.91 in 10.0 mi East 6.9 mph - 0.02 in   Overcast
5:52 PM 71.1 °F 64.9 °F 81% 29.91 in 10.0 mi ESE 8.1 mph - N/A   Scattered Clouds
6:52 PM 70.0 °F 64.0 °F 81% 29.91 in 10.0 mi ESE 5.8 mph - N/A   Mostly Cloudy
7:52 PM 69.1 °F 63.0 °F 81% 29.91 in 10.0 mi East 5.8 mph - N/A   Partly Cloudy
8:52 PM 66.0 °F 63.0 °F 90% 29.92 in 10.0 mi East 3.5 mph - N/A   Scattered Clouds
9:27 PM 66.2 °F 62.6 °F 88% 29.95 in 9.0 mi East 13.8 mph 19.6 mph N/A   Mostly Cloudy
9:48 PM 62.6 °F 59.0 °F 88% 29.96 in 8.0 mi ENE 12.7 mph 20.7 mph N/A   Scattered Clouds
9:52 PM 63.0 °F 59.0 °F 87% 29.96 in 7.0 mi ENE 16.1 mph - N/A   Mostly Cloudy
10:16 PM 62.6 °F 57.2 °F 82% 29.97 in 7.0 mi ENE 12.7 mph - N/A   Overcast
10:23 PM 62.6 °F 57.2 °F 82% 29.97 in 8.0 mi ENE 16.1 mph - N/A   Overcast
10:52 PM 62.1 °F 57.9 °F 86% 29.97 in 8.0 mi ENE 12.7 mph - N/A   Overcast
11:52 PM 63.0 °F 57.9 °F 84% 29.97 in 10.0 mi NE 11.5 mph - N/A   Overcast